Location: Newark
(33.9035°S, 18.4112°E)
Time: 01:25:35
(UTC+00:00)

STARLINK-1077 - Pass Details

Date: 18 January 2020
Orbit: 348 x 351 km, 53.0° (Epoch: 17 February)

Event Time Altitude Azimuth Distance (km) Brightness Sun altitude
Exits shadow 01:59:23 - 47° (NE) 2,050 6.6 -20.2°
Enters shadow 02:54:58 -75° 306° (NW) 12,652 10.5 -11.3°
Maximum altitude 03:34:48 59° 48° (NE) 412 3.2 -4.3°
